ITY98 LIMC-KJFK

Flight info

Callsign ITY98
Flight time N/A
Altitude 40000
Route AOSTA DCT ORSUD DCT MOLUS DCT UNKIR DCT DJL DCT OKRIX DCT AMODO DCT COHPA UM729 RESMI UN491 LGL UN502 JSY DCT LIZAD DCT LULOX/M084F400 DCT GIPER DCT ELSOX DCT DINIM/M084F390 NATF MUSAK/N0485F430 N296B TUSKY DCT PLYMM PARCH4
Aircraft A359/H-SDE2E3GHIJ3J4J5LM1ORWXY/LB1D1

Departure

Time 2026-05-06 09:02
Airport Milan Malpensa International Airport (LIMC)

Arrival

Time N/A
Airport John F. Kennedy International Airport (KJFK)
Time Latitude Longitude Altitude Speed Heading
2026-05-06 08:13 45.62232 8.71790 754 ft 0 kts 169°
2026-05-06 08:46 45.62238 8.71788 754 ft 4 kts 169°
2026-05-06 08:46 45.62265 8.71781 754 ft 4 kts 169°
2026-05-06 08:47 45.62289 8.71774 754 ft 3 kts 168°
2026-05-06 08:47 45.62311 8.71761 754 ft 4 kts 119°
2026-05-06 08:47 45.62314 8.71727 754 ft 4 kts 79°
2026-05-06 08:47 45.62311 8.71703 754 ft 1 kts 79°
2026-05-06 08:48 45.62310 8.71700 754 ft 0 kts 79°
2026-05-06 08:52 45.62318 8.71764 754 ft 9 kts 83°
2026-05-06 08:52 45.62324 8.71854 754 ft 9 kts 91°
2026-05-06 08:52 45.62321 8.71901 755 ft 0 kts 96°
2026-05-06 08:53 45.62321 8.71912 759 ft 0 kts 97°
2026-05-06 08:54 45.62292 8.71977 754 ft 26 kts 141°
2026-05-06 08:54 45.62109 8.71996 756 ft 27 kts 181°
2026-05-06 08:54 45.61925 8.72029 755 ft 27 kts 169°
2026-05-06 08:55 45.61741 8.72078 754 ft 27 kts 169°
2026-05-06 08:55 45.61553 8.72132 757 ft 28 kts 168°
2026-05-06 08:55 45.61363 8.72189 755 ft 28 kts 167°
2026-05-06 08:55 45.61169 8.72245 757 ft 28 kts 169°
2026-05-06 08:56 45.60977 8.72297 758 ft 29 kts 169°
2026-05-06 08:56 45.60782 8.72350 758 ft 29 kts 169°
2026-05-06 08:56 45.60631 8.72444 755 ft 0 kts 127°
2026-05-06 08:56 45.60624 8.72468 755 ft 8 kts 105°
2026-05-06 08:57 45.60620 8.72554 786 ft 9 kts 91°
2026-05-06 08:57 45.60619 8.72652 760 ft 11 kts 91°
2026-05-06 08:57 45.60617 8.72767 760 ft 12 kts 91°
2026-05-06 08:57 45.60609 8.72891 755 ft 13 kts 96°
2026-05-06 08:58 45.60598 8.73027 756 ft 14 kts 96°
2026-05-06 08:58 45.60599 8.73171 756 ft 14 kts 75°
2026-05-06 08:58 45.60658 8.73273 755 ft 13 kts 36°
2026-05-06 08:58 45.60743 8.73334 756 ft 14 kts 21°
2026-05-06 08:59 45.60841 8.73382 756 ft 15 kts 17°
2026-05-06 08:59 45.60953 8.73381 757 ft 18 kts 353°
2026-05-06 08:59 45.61086 8.73349 755 ft 21 kts 349°
2026-05-06 08:59 45.61237 8.73309 755 ft 24 kts 350°
2026-05-06 09:00 45.61408 8.73267 756 ft 26 kts 348°
2026-05-06 09:00 45.61589 8.73248 755 ft 26 kts 24°
2026-05-06 09:00 45.61638 8.73424 756 ft 17 kts 110°
2026-05-06 09:00 45.61595 8.73582 752 ft 18 kts 96°
2026-05-06 09:01 45.61665 8.73707 748 ft 18 kts
2026-05-06 09:01 45.61790 8.73687 748 ft 19 kts 347°
2026-05-06 09:01 45.62038 8.73619 747 ft 68 kts 350°
2026-05-06 09:01 45.62711 8.73452 750 ft 126 kts 349°
2026-05-06 09:02 45.63753 8.73147 781 ft 175 kts 352°
2026-05-06 09:02 45.64977 8.72773 1319 ft 180 kts 351°
2026-05-06 09:02 45.66172 8.72549 2104 ft 175 kts
2026-05-06 09:02 45.67473 8.72586 2466 ft 201 kts
2026-05-06 09:03 45.68978 8.72590 2784 ft 229 kts
2026-05-06 09:03 45.70506 8.71715 3347 ft 248 kts 320°
2026-05-06 09:03 45.71401 8.69640 4095 ft 246 kts 278°
2026-05-06 09:03 45.71514 8.67257 5006 ft 236 kts 264°
2026-05-06 09:04 45.71504 8.64934 5797 ft 237 kts 265°
2026-05-06 09:04 45.71527 8.62545 6435 ft 243 kts 269°
2026-05-06 09:04 45.71325 8.60134 7160 ft 241 kts 245°
2026-05-06 09:04 45.70542 8.58005 8180 ft 248 kts 234°
2026-05-06 09:05 45.69582 8.55819 8907 ft 271 kts 235°
2026-05-06 09:05 45.68542 8.53443 9594 ft 285 kts 236°
2026-05-06 09:05 45.67488 8.51047 10390 ft 289 kts 235°
2026-05-06 09:05 45.66377 8.48570 10830 ft 308 kts 234°
2026-05-06 09:06 45.65193 8.45905 11627 ft 324 kts 236°
2026-05-06 09:06 45.63948 8.43138 12596 ft 334 kts 236°
2026-05-06 09:06 45.62628 8.40389 13500 ft 334 kts 231°
2026-05-06 09:06 45.61161 8.37792 14265 ft 336 kts 228°
2026-05-06 09:07 45.59725 8.35173 14935 ft 342 kts 234°
2026-05-06 09:07 45.58705 8.32074 15604 ft 350 kts 251°
2026-05-06 09:07 45.58428 8.28590 16288 ft 361 kts 269°
2026-05-06 09:07 45.58935 8.25032 16948 ft 371 kts 283°
2026-05-06 09:08 45.59759 8.21505 17631 ft 376 kts 284°
2026-05-06 09:08 45.60363 8.19112 18064 ft 382 kts 288°
2026-05-06 09:08 45.61646 8.15692 18662 ft 390 kts 300°
2026-05-06 09:08 45.63239 8.12524 19334 ft 394 kts 303°
2026-05-06 09:09 45.64961 8.09438 20021 ft 397 kts 305°
2026-05-06 09:09 45.66751 8.06413 20764 ft 400 kts 306°
2026-05-06 09:09 45.68584 8.03379 21407 ft 404 kts 306°
2026-05-06 09:09 45.70410 8.00350 21991 ft 410 kts 307°
2026-05-06 09:10 45.72286 7.97214 22526 ft 418 kts 306°
2026-05-06 09:10 45.74177 7.94042 23234 ft 420 kts 306°
2026-05-06 09:10 45.76076 7.90841 23811 ft 424 kts 306°
2026-05-06 09:10 45.77971 7.87630 24315 ft 426 kts 305°
2026-05-06 09:11 45.79891 7.84366 24834 ft 431 kts 306°
2026-05-06 09:11 45.81835 7.81053 25268 ft 436 kts 306°
2026-05-06 09:11 45.83800 7.77702 25799 ft 438 kts 305°
2026-05-06 09:11 45.85763 7.74355 26358 ft 439 kts 304°
2026-05-06 09:12 45.87722 7.71006 26876 ft 442 kts 304°
2026-05-06 09:12 45.89709 7.67600 27386 ft 444 kts 303°
2026-05-06 09:12 45.91699 7.64187 27878 ft 448 kts 303°
2026-05-06 09:12 45.93719 7.60723 28332 ft 452 kts 303°
2026-05-06 09:13 45.95718 7.57293 28850 ft 454 kts 302°
2026-05-06 09:13 45.97750 7.53798 29343 ft 457 kts 302°
2026-05-06 09:13 45.99797 7.50269 29881 ft 460 kts 302°
2026-05-06 09:13 46.01855 7.46722 30339 ft 463 kts 302°
2026-05-06 09:14 46.03939 7.43137 30719 ft 466 kts 302°
2026-05-06 09:14 46.06000 7.39580 31081 ft 469 kts 302°
2026-05-06 09:14 46.08100 7.35947 31451 ft 472 kts 302°
2026-05-06 09:14 46.10210 7.32290 31837 ft 475 kts 302°
2026-05-06 09:15 46.12330 7.28615 32280 ft 477 kts 302°
2026-05-06 09:15 46.14432 7.24968 32720 ft 479 kts 302°
2026-05-06 09:15 46.16577 7.21241 32985 ft 484 kts 302°
2026-05-06 09:15 46.18739 7.17469 33265 ft 488 kts 302°
2026-05-06 09:16 46.20918 7.13664 33421 ft 493 kts 302°
2026-05-06 09:16 46.23111 7.09832 33731 ft 494 kts 302°
2026-05-06 09:16 46.25280 7.06041 34015 ft 496 kts 302°
2026-05-06 09:16 46.27486 7.02179 34274 ft 498 kts 303°
2026-05-06 09:17 46.29696 6.98308 34553 ft 498 kts 303°
2026-05-06 09:17 46.31900 6.94443 34898 ft 497 kts 303°
2026-05-06 09:17 46.34096 6.90586 35267 ft 495 kts 303°
2026-05-06 09:17 46.36288 6.86729 35637 ft 494 kts 303°
2026-05-06 09:18 46.38443 6.82930 35971 ft 495 kts 303°
2026-05-06 09:18 46.40634 6.79061 36280 ft 494 kts 304°
2026-05-06 09:18 46.42820 6.75194 36604 ft 493 kts 304°
2026-05-06 09:18 46.44967 6.71394 36926 ft 492 kts 304°
2026-05-06 09:19 46.47137 6.67546 37220 ft 491 kts 305°
2026-05-06 09:19 46.49301 6.63703 37513 ft 491 kts 305°
2026-05-06 09:19 46.51459 6.59863 37788 ft 490 kts 305°
2026-05-06 09:19 46.53612 6.56028 38048 ft 489 kts 305°
2026-05-06 09:20 46.55765 6.52190 38283 ft 488 kts 305°
2026-05-06 09:20 46.57887 6.48401 38502 ft 488 kts 306°
2026-05-06 09:20 46.60040 6.44550 38673 ft 488 kts 305°
2026-05-06 09:21 46.64332 6.36855 38911 ft 490 kts 305°
2026-05-06 09:21 46.66484 6.32989 39075 ft 490 kts 305°
2026-05-06 09:21 46.68602 6.29182 39243 ft 489 kts 305°
2026-05-06 09:21 46.70744 6.25325 39391 ft 489 kts 305°
2026-05-06 09:22 46.72890 6.21456 39526 ft 489 kts 305°
2026-05-06 09:22 46.75032 6.17589 39663 ft 489 kts 305°
2026-05-06 09:22 46.77167 6.13729 39779 ft 489 kts 305°
2026-05-06 09:23 46.81436 6.05993 39866 ft 491 kts 306°
2026-05-06 09:23 46.85703 5.98239 39863 ft 493 kts 306°
2026-05-06 09:24 46.89548 5.91233 39856 ft 493 kts 305°
2026-05-06 09:24 46.90967 5.88644 39855 ft 493 kts 305°
2026-05-06 09:25 46.95080 5.81123 39854 ft 493 kts 305°
2026-05-06 09:26 46.99363 5.73271 39862 ft 493 kts 305°
2026-05-06 09:26 47.03622 5.65439 39850 ft 493 kts 305°
2026-05-06 09:27 47.07910 5.57529 39853 ft 494 kts 305°
2026-05-06 09:27 47.12166 5.49659 39848 ft 494 kts 305°
2026-05-06 09:28 47.16435 5.41742 39850 ft 494 kts 305°
2026-05-06 09:28 47.20674 5.33857 39855 ft 493 kts 305°
2026-05-06 09:29 47.24935 5.25908 39855 ft 492 kts 305°
2026-05-06 09:29 47.29171 5.17981 39855 ft 492 kts 305°
2026-05-06 09:30 47.33407 5.10033 39857 ft 492 kts 305°
2026-05-06 09:30 47.37620 5.02106 39853 ft 492 kts 305°
2026-05-06 09:31 47.41819 4.94181 39850 ft 492 kts 305°
2026-05-06 09:31 47.46041 4.86191 39835 ft 492 kts 305°
2026-05-06 09:32 47.50223 4.78252 39842 ft 491 kts 305°
2026-05-06 09:32 47.54422 4.70256 39820 ft 491 kts 305°
2026-05-06 09:33 47.58620 4.62242 39840 ft 491 kts 305°
2026-05-06 09:33 47.62785 4.54267 39841 ft 492 kts 305°
2026-05-06 09:34 47.66987 4.46197 39837 ft 493 kts 305°
2026-05-06 09:34 47.71190 4.38096 39830 ft 498 kts 305°
2026-05-06 09:35 47.75419 4.29925 39834 ft 503 kts 305°
2026-05-06 09:35 47.79689 4.21650 39832 ft 506 kts 305°
2026-05-06 09:36 47.83976 4.13317 39833 ft 507 kts 306°
2026-05-06 09:36 47.88239 4.05009 39837 ft 507 kts 306°
2026-05-06 09:37 47.92525 3.96627 39834 ft 505 kts 305°
2026-05-06 09:37 47.96753 3.88333 39840 ft 505 kts 305°
2026-05-06 09:38 47.99722 3.82492 39842 ft 507 kts 305°
2026-05-06 09:39 48.03979 3.74098 39841 ft 508 kts 305°
2026-05-06 09:39 48.08225 3.65700 39843 ft 508 kts 305°
2026-05-06 09:40 48.12485 3.57247 39848 ft 508 kts 305°
2026-05-06 09:40 48.18848 3.44573 39849 ft 508 kts 305°
2026-05-06 09:41 48.23117 3.36036 39853 ft 509 kts 305°
2026-05-06 09:41 48.27334 3.27576 39855 ft 509 kts 305°
2026-05-06 09:42 48.31557 3.19079 39862 ft 509 kts 305°
2026-05-06 09:42 48.35790 3.10533 39867 ft 509 kts 305°
2026-05-06 09:43 48.39960 3.01966 39874 ft 508 kts 301°
2026-05-06 09:43 48.43025 2.92440 39878 ft 503 kts 288°
2026-05-06 09:44 48.45126 2.82387 39884 ft 502 kts 284°
2026-05-06 09:44 48.46974 2.72295 39890 ft 502 kts 283°
2026-05-06 09:45 48.48838 2.62135 39890 ft 502 kts 284°
2026-05-06 09:45 48.50735 2.51999 39894 ft 501 kts 284°
2026-05-06 09:46 48.52626 2.41954 39890 ft 499 kts 284°
2026-05-06 09:46 48.54520 2.31842 39909 ft 499 kts 284°
2026-05-06 09:47 48.56390 2.21798 39909 ft 499 kts 284°
2026-05-06 09:47 48.58130 2.11612 39913 ft 500 kts 280°
2026-05-06 09:48 48.59502 2.01346 39910 ft 502 kts 280°
2026-05-06 09:48 48.60861 1.90957 39910 ft 503 kts 280°
2026-05-06 09:49 48.62258 1.80648 39913 ft 502 kts 280°
2026-05-06 09:49 48.63683 1.70277 39921 ft 503 kts 280°
2026-05-06 09:50 48.65100 1.59958 39919 ft 501 kts 280°
2026-05-06 09:50 48.66489 1.49684 39926 ft 501 kts 280°
2026-05-06 09:51 48.67869 1.39347 39929 ft 501 kts 280°
2026-05-06 09:51 48.69248 1.28996 39932 ft 500 kts 280°
2026-05-06 09:52 48.70607 1.18713 39938 ft 499 kts 280°
2026-05-06 09:52 48.71960 1.08368 39936 ft 500 kts 280°
2026-05-06 09:53 48.73296 0.98094 39943 ft 499 kts 280°
2026-05-06 09:53 48.74632 0.87757 39944 ft 500 kts 280°
2026-05-06 09:54 48.75966 0.77419 39942 ft 499 kts 279°
2026-05-06 09:54 48.77279 0.67157 39938 ft 499 kts 280°
2026-05-06 09:55 48.78595 0.56795 39945 ft 499 kts 279°
2026-05-06 09:55 48.80021 0.46554 39945 ft 499 kts 283°
2026-05-06 09:56 48.81920 0.36408 39941 ft 499 kts 285°
2026-05-06 09:56 48.83541 0.27999 39944 ft 498 kts 285°
2026-05-06 09:57 48.85417 0.17865 39943 ft 497 kts 284°
2026-05-06 09:57 48.87228 0.07747 39947 ft 498 kts 284°
2026-05-06 09:58 48.89028 -0.02443 39955 ft 498 kts 284°
2026-05-06 09:58 48.90804 -0.12548 39960 ft 496 kts 284°
2026-05-06 09:59 48.92582 -0.22708 39959 ft 496 kts 284°
2026-05-06 09:59 48.94339 -0.32859 39960 ft 497 kts 283°
2026-05-06 10:00 48.96051 -0.43052 39968 ft 496 kts 283°
2026-05-06 10:00 48.97749 -0.53247 39969 ft 496 kts 283°
2026-05-06 10:01 48.99439 -0.63406 39969 ft 497 kts 283°
2026-05-06 10:01 49.01130 -0.73610 39970 ft 496 kts 283°
2026-05-06 10:02 49.02810 -0.83806 39971 ft 496 kts 283°
2026-05-06 10:02 49.04478 -0.93985 39972 ft 497 kts 283°
2026-05-06 10:03 49.06142 -1.04205 39974 ft 496 kts 283°
2026-05-06 10:03 49.07801 -1.14461 39980 ft 497 kts 283°
2026-05-06 10:04 49.09447 -1.24632 39981 ft 497 kts 283°
2026-05-06 10:04 49.11103 -1.34861 39980 ft 496 kts 283°
2026-05-06 10:05 49.12752 -1.45108 39983 ft 496 kts 283°
2026-05-06 10:05 49.14384 -1.55318 39980 ft 496 kts 283°
2026-05-06 10:06 49.16005 -1.65523 39982 ft 496 kts 283°
2026-05-06 10:06 49.17628 -1.75802 39982 ft 496 kts 283°
2026-05-06 10:07 49.19229 -1.86011 39983 ft 496 kts 283°
2026-05-06 10:07 49.20829 -1.96275 39992 ft 496 kts 283°
2026-05-06 10:08 49.22426 -2.06566 39982 ft 496 kts 283°
2026-05-06 10:08 49.24144 -2.16754 39986 ft 496 kts 284°
2026-05-06 10:09 49.25936 -2.26991 39992 ft 496 kts 284°
2026-05-06 10:09 49.27690 -2.37158 39984 ft 496 kts 284°
2026-05-06 10:10 49.29428 -2.47406 39983 ft 496 kts 284°
2026-05-06 10:10 49.31138 -2.57584 39987 ft 495 kts 284°
2026-05-06 10:11 49.32852 -2.67851 40000 ft 495 kts 284°
2026-05-06 10:11 49.34543 -2.78037 39996 ft 495 kts 284°
2026-05-06 10:12 49.36239 -2.88307 39980 ft 495 kts 284°
2026-05-06 10:12 49.37909 -2.98485 39982 ft 495 kts 284°
2026-05-06 10:13 49.39585 -3.08763 39978 ft 495 kts 283°
2026-05-06 10:13 49.40689 -3.15562 39988 ft 495 kts 283°
2026-05-06 10:14 49.42873 -3.29104 39988 ft 494 kts 283°
2026-05-06 10:14 49.44519 -3.39385 39990 ft 494 kts 283°
2026-05-06 10:15 49.46148 -3.49620 39979 ft 494 kts 283°
2026-05-06 10:15 49.47775 -3.59908 39985 ft 494 kts 283°
2026-05-06 10:16 49.49381 -3.70125 39997 ft 492 kts 283°
2026-05-06 10:16 49.50981 -3.80367 39992 ft 491 kts 283°
2026-05-06 10:17 49.52561 -3.90548 39990 ft 492 kts 283°
2026-05-06 10:17 49.54145 -4.00820 40003 ft 492 kts 283°
2026-05-06 10:18 49.55711 -4.11038 39991 ft 492 kts 283°
2026-05-06 10:18 49.57276 -4.21314 39993 ft 493 kts 283°
2026-05-06 10:19 49.58873 -4.31632 40005 ft 493 kts 285°
2026-05-06 10:19 49.61014 -4.41618 40010 ft 493 kts 289°
2026-05-06 10:20 49.63294 -4.51603 40006 ft 493 kts 289°
2026-05-06 10:20 49.65575 -4.61519 40012 ft 492 kts 289°
2026-05-06 10:21 49.67853 -4.71499 40009 ft 490 kts 289°
2026-05-06 10:21 49.70093 -4.81390 40007 ft 489 kts 289°
2026-05-06 10:22 49.72332 -4.91337 40009 ft 490 kts 289°
2026-05-06 10:22 49.74565 -5.01299 40011 ft 491 kts 289°
2026-05-06 10:23 49.76781 -5.11236 40008 ft 491 kts 289°
2026-05-06 10:23 49.79003 -5.21243 40007 ft 490 kts 288°
2026-05-06 10:24 49.81212 -5.31243 40004 ft 490 kts 288°
2026-05-06 10:24 49.83400 -5.41190 40007 ft 491 kts 288°
2026-05-06 10:25 49.85596 -5.51227 40012 ft 490 kts 288°
2026-05-06 10:25 49.87765 -5.61186 40009 ft 489 kts 288°
2026-05-06 10:26 49.89939 -5.71216 40015 ft 490 kts 288°
2026-05-06 10:26 49.92102 -5.81248 40018 ft 490 kts 288°
2026-05-06 10:27 49.94252 -5.91264 40023 ft 490 kts 288°
2026-05-06 10:27 49.96401 -6.01330 40023 ft 490 kts 288°
2026-05-06 10:28 49.98539 -6.11388 40027 ft 490 kts 288°
2026-05-06 10:28 50.00661 -6.21424 40035 ft 491 kts 288°
2026-05-06 10:29 50.02789 -6.31537 40042 ft 491 kts 288°
2026-05-06 10:29 50.04901 -6.41625 40031 ft 490 kts 288°
2026-05-06 10:30 50.06997 -6.51689 40034 ft 491 kts 288°
2026-05-06 10:30 50.09097 -6.61824 40039 ft 491 kts 288°
2026-05-06 10:31 50.11189 -6.71967 40038 ft 491 kts 288°
2026-05-06 10:31 50.13259 -6.82060 40043 ft 491 kts 288°
2026-05-06 10:32 50.15332 -6.92216 40039 ft 491 kts 288°
2026-05-06 10:32 50.17396 -7.02381 40044 ft 491 kts 287°
2026-05-06 10:33 50.19444 -7.12519 40040 ft 491 kts 287°
2026-05-06 10:33 50.21479 -7.22645 40043 ft 491 kts 287°
2026-05-06 10:34 50.23519 -7.32851 40041 ft 491 kts 287°
2026-05-06 10:34 50.25535 -7.42986 40041 ft 490 kts 287°
2026-05-06 10:35 50.27558 -7.53212 40041 ft 490 kts 287°
2026-05-06 10:35 50.29553 -7.63349 40036 ft 490 kts 287°
2026-05-06 10:36 50.31547 -7.73537 40037 ft 490 kts 287°
2026-05-06 10:36 50.33542 -7.83782 40037 ft 490 kts 287°
2026-05-06 10:37 50.35525 -7.94017 40038 ft 491 kts 287°
2026-05-06 10:37 50.37476 -8.04207 40039 ft 491 kts 286°
2026-05-06 10:38 50.39302 -8.14519 40033 ft 490 kts 285°
2026-05-06 10:38 50.41074 -8.24800 40033 ft 490 kts 285°
2026-05-06 10:39 50.42864 -8.35140 40030 ft 490 kts 285°
2026-05-06 10:39 50.44652 -8.45448 40035 ft 490 kts 285°
2026-05-06 10:40 50.46426 -8.55707 40035 ft 490 kts 285°
2026-05-06 10:40 50.48207 -8.66066 40035 ft 490 kts 285°
2026-05-06 10:41 50.49964 -8.76357 40035 ft 490 kts 285°
2026-05-06 10:41 50.51724 -8.86727 40037 ft 490 kts 285°
2026-05-06 10:42 50.53475 -8.97105 40056 ft 491 kts 285°
2026-05-06 10:42 50.55206 -9.07425 40047 ft 491 kts 285°
2026-05-06 10:43 50.56941 -9.17834 40043 ft 491 kts 285°
2026-05-06 10:44 50.59513 -9.33376 40045 ft 491 kts 285°
2026-05-06 10:44 50.61226 -9.43813 40050 ft 491 kts 285°
2026-05-06 10:45 50.62918 -9.54181 40045 ft 491 kts 285°
2026-05-06 10:45 50.64614 -9.64643 40046 ft 491 kts 285°
2026-05-06 10:46 50.66290 -9.75039 40050 ft 491 kts 285°
2026-05-06 10:46 50.67964 -9.85491 40051 ft 491 kts 284°
2026-05-06 10:47 50.69622 -9.95915 40050 ft 491 kts 284°
2026-05-06 10:47 50.71276 -10.06371 40050 ft 491 kts 284°
2026-05-06 10:48 50.72917 -10.16814 40051 ft 491 kts 284°
2026-05-06 10:48 50.74282 -10.25555 40052 ft 491 kts 284°
2026-05-06 10:49 50.76176 -10.37757 40061 ft 491 kts 284°
2026-05-06 10:49 50.77527 -10.46518 40046 ft 492 kts 284°
2026-05-06 10:50 50.79138 -10.57032 40065 ft 492 kts 284°
2026-05-06 10:50 50.80732 -10.67495 40056 ft 492 kts 284°
2026-05-06 10:51 50.82327 -10.78038 40054 ft 492 kts 284°
2026-05-06 10:51 50.83903 -10.88531 40067 ft 492 kts 284°
2026-05-06 10:52 50.85478 -10.99080 40067 ft 492 kts 284°
2026-05-06 10:52 50.87046 -11.09658 40065 ft 492 kts 284°
2026-05-06 10:53 50.88593 -11.20162 40056 ft 493 kts 284°
2026-05-06 10:53 50.90144 -11.30765 40072 ft 492 kts 284°
2026-05-06 10:54 50.91684 -11.41368 40068 ft 493 kts 283°
2026-05-06 10:54 50.93205 -11.51906 40074 ft 493 kts 283°
2026-05-06 10:55 50.94723 -11.62504 40070 ft 493 kts 283°
2026-05-06 10:55 50.96234 -11.73122 40062 ft 493 kts 283°
2026-05-06 10:56 50.97737 -11.83761 40072 ft 493 kts 283°
2026-05-06 10:56 50.99221 -11.94336 40070 ft 493 kts 283°
2026-05-06 10:57 50.99992 -12.04254 40075 ft 495 kts 274°
2026-05-06 10:57 51.00173 -12.15190 40078 ft 495 kts 272°
2026-05-06 10:58 51.00227 -12.25081 40077 ft 495 kts 271°
2026-05-06 10:58 51.00268 -12.35953 40074 ft 495 kts 271°
2026-05-06 10:59 51.00314 -12.46913 40074 ft 496 kts 271°
2026-05-06 10:59 51.00357 -12.57817 40077 ft 496 kts 271°
2026-05-06 11:00 51.00393 -12.68828 40075 ft 496 kts 271°
2026-05-06 11:00 51.00417 -12.79734 40075 ft 496 kts 271°
2026-05-06 11:01 51.00431 -12.90702 40073 ft 496 kts 271°
2026-05-06 11:01 51.00435 -13.01615 40080 ft 496 kts 271°
2026-05-06 11:02 51.00428 -13.12587 40080 ft 497 kts 271°
2026-05-06 11:02 51.00411 -13.23585 40081 ft 497 kts 271°
2026-05-06 11:03 51.00384 -13.34512 40076 ft 497 kts 271°
2026-05-06 11:03 51.00346 -13.45443 40084 ft 497 kts 271°
2026-05-06 11:04 51.00299 -13.56423 40083 ft 497 kts 271°
2026-05-06 11:04 51.00241 -13.67424 40083 ft 497 kts 271°
2026-05-06 11:05 51.00173 -13.78356 40082 ft 497 kts 271°
2026-05-06 11:05 51.00094 -13.89343 40084 ft 497 kts 271°
2026-05-06 11:06 51.00005 -14.00345 40087 ft 497 kts 271°
2026-05-06 11:06 50.99995 -14.11288 40088 ft 497 kts 272°
2026-05-06 11:07 51.00056 -14.22218 40088 ft 497 kts 272°
2026-05-06 11:07 51.00099 -14.33226 40077 ft 497 kts 272°
2026-05-06 11:08 51.00116 -14.44164 40087 ft 497 kts 271°
2026-05-06 11:08 51.00115 -14.55173 40089 ft 497 kts 271°
2026-05-06 11:09 51.00104 -14.66167 40089 ft 497 kts 271°
2026-05-06 11:09 51.00083 -14.77080 40083 ft 497 kts 271°
2026-05-06 11:10 51.00053 -14.88089 40082 ft 497 kts 271°
2026-05-06 11:10 51.00130 -14.99065 40082 ft 496 kts 277°
2026-05-06 11:11 51.01178 -15.09786 40088 ft 495 kts 282°
2026-05-06 11:11 51.02464 -15.20522 40093 ft 494 kts 282°
2026-05-06 11:12 51.03782 -15.31265 40073 ft 494 kts 282°
2026-05-06 11:12 51.05076 -15.42004 40091 ft 494 kts 282°
2026-05-06 11:13 51.06346 -15.52717 40093 ft 494 kts 282°
2026-05-06 11:13 51.07609 -15.63492 40086 ft 494 kts 282°
2026-05-06 11:14 51.08852 -15.74188 40084 ft 494 kts 282°
2026-05-06 11:14 51.10099 -15.85009 40081 ft 494 kts 282°
2026-05-06 11:15 51.11319 -15.95684 40093 ft 494 kts 282°
2026-05-06 11:15 51.12543 -16.06480 40091 ft 494 kts 282°
2026-05-06 11:16 51.13753 -16.17250 40088 ft 494 kts 282°
2026-05-06 11:16 51.14950 -16.27998 40085 ft 494 kts 282°
2026-05-06 11:17 51.16140 -16.38775 40093 ft 492 kts 282°
2026-05-06 11:17 51.17313 -16.49496 40092 ft 491 kts 282°
2026-05-06 11:18 51.18470 -16.60162 40076 ft 491 kts 282°
2026-05-06 11:18 51.19625 -16.70907 40092 ft 491 kts 282°
2026-05-06 11:19 51.20771 -16.81661 40090 ft 491 kts 282°
2026-05-06 11:19 51.21899 -16.92344 40088 ft 490 kts 281°
2026-05-06 11:20 51.23024 -17.03103 40089 ft 490 kts 281°
2026-05-06 11:20 51.24131 -17.13779 40088 ft 489 kts 281°
2026-05-06 11:21 51.25235 -17.24535 40092 ft 489 kts 281°
2026-05-06 11:21 51.26319 -17.35188 40091 ft 489 kts 281°
2026-05-06 11:22 51.27400 -17.45918 40088 ft 488 kts 281°
2026-05-06 11:22 51.28464 -17.56583 40092 ft 487 kts 281°
2026-05-06 11:23 51.29523 -17.67296 40089 ft 487 kts 281°
2026-05-06 11:23 51.30570 -17.77988 40088 ft 487 kts 281°
2026-05-06 11:24 51.31610 -17.88721 40088 ft 487 kts 281°
2026-05-06 11:24 51.32634 -17.99390 40085 ft 487 kts 280°
2026-05-06 11:25 51.33653 -18.10113 40089 ft 487 kts 280°
2026-05-06 11:25 51.34663 -18.20851 40088 ft 486 kts 280°
2026-05-06 11:26 51.35656 -18.31512 40089 ft 486 kts 280°
2026-05-06 11:26 51.36637 -18.42160 40088 ft 486 kts 280°
2026-05-06 11:27 51.37615 -18.52878 40086 ft 486 kts 279°
2026-05-06 11:27 51.38582 -18.63592 40089 ft 486 kts 279°
2026-05-06 11:28 51.39541 -18.74328 40083 ft 486 kts 279°
2026-05-06 11:28 51.40485 -18.85008 40089 ft 486 kts 279°
2026-05-06 11:29 51.41424 -18.95746 40089 ft 486 kts 279°
2026-05-06 11:29 51.42349 -19.06442 40081 ft 486 kts 279°
2026-05-06 11:30 51.43265 -19.17150 40087 ft 486 kts 278°
2026-05-06 11:30 51.44176 -19.27916 40086 ft 486 kts 278°
2026-05-06 11:31 51.45076 -19.38688 40087 ft 486 kts 278°
2026-05-06 11:31 51.45962 -19.49402 40087 ft 487 kts 278°
2026-05-06 11:32 51.46844 -19.60183 40082 ft 487 kts 278°
2026-05-06 11:32 51.47716 -19.70978 40086 ft 487 kts 278°
2026-05-06 11:33 51.48572 -19.81695 40086 ft 487 kts 278°
2026-05-06 11:33 51.49423 -19.92489 40086 ft 487 kts 278°
2026-05-06 11:34 51.50252 -20.03294 40084 ft 487 kts 276°
2026-05-06 11:34 51.50743 -20.14095 40086 ft 487 kts 274°
2026-05-06 11:35 51.51038 -20.23142 40088 ft 487 kts 274°
2026-05-06 11:35 51.51416 -20.34007 40083 ft 487 kts 274°
2026-05-06 11:36 51.51830 -20.44899 40089 ft 487 kts 274°
2026-05-06 11:36 51.52249 -20.55780 40083 ft 487 kts 274°
2026-05-06 11:37 51.52656 -20.66594 40076 ft 487 kts 274°
2026-05-06 11:37 51.53054 -20.77462 40083 ft 487 kts 274°
2026-05-06 11:38 51.53441 -20.88358 40086 ft 487 kts 274°
2026-05-06 11:38 51.53815 -20.99188 40085 ft 487 kts 274°
2026-05-06 11:39 51.54182 -21.10092 40087 ft 487 kts 274°
2026-05-06 11:39 51.54536 -21.20903 40085 ft 488 kts 273°
2026-05-06 11:40 51.54884 -21.31827 40087 ft 488 kts 273°
2026-05-06 11:40 51.55219 -21.42680 40089 ft 488 kts 273°
2026-05-06 11:41 51.55546 -21.53604 40089 ft 488 kts 273°
2026-05-06 11:41 51.55860 -21.64429 40089 ft 488 kts 272°
2026-05-06 11:42 51.56167 -21.75365 40091 ft 488 kts 272°
2026-05-06 11:42 51.56463 -21.86263 40091 ft 487 kts 272°
2026-05-06 11:43 51.56747 -21.97087 40090 ft 487 kts 272°
2026-05-06 11:43 51.57023 -22.08024 40092 ft 487 kts 272°
2026-05-06 11:44 51.57417 -22.24300 40090 ft 487 kts 271°
2026-05-06 11:44 51.57667 -22.35207 40094 ft 487 kts 271°
2026-05-06 11:45 51.57906 -22.46047 40089 ft 487 kts 271°
2026-05-06 11:45 51.58137 -22.56972 40088 ft 487 kts 271°
2026-05-06 11:46 51.58356 -22.67815 40089 ft 487 kts 271°
2026-05-06 11:46 51.58567 -22.78722 40092 ft 487 kts 271°
2026-05-06 11:47 51.58767 -22.89628 40086 ft 487 kts 271°
2026-05-06 11:47 51.58956 -23.00475 40086 ft 487 kts 271°
2026-05-06 11:48 51.59136 -23.11396 40089 ft 487 kts 271°
2026-05-06 11:48 51.59304 -23.22229 40088 ft 487 kts 271°
2026-05-06 11:49 51.59464 -23.33143 40085 ft 487 kts 271°
2026-05-06 11:49 51.59614 -23.44063 40086 ft 487 kts 270°
2026-05-06 11:50 51.59753 -23.54964 40097 ft 487 kts 270°
2026-05-06 11:50 51.59882 -23.65795 40087 ft 488 kts 270°
2026-05-06 11:51 51.60001 -23.76717 40086 ft 488 kts 270°
2026-05-06 11:51 51.60110 -23.87636 40086 ft 488 kts 270°
2026-05-06 11:52 51.60209 -23.98493 40080 ft 488 kts 270°
2026-05-06 11:52 51.60298 -24.09420 40079 ft 488 kts 270°
2026-05-06 11:53 51.60377 -24.20353 40081 ft 488 kts 270°
2026-05-06 11:53 51.60445 -24.31212 40084 ft 488 kts 270°
2026-05-06 11:54 51.60504 -24.42132 40077 ft 488 kts 270°
2026-05-06 11:54 51.60553 -24.53052 40074 ft 488 kts 270°
2026-05-06 11:55 51.60591 -24.63988 40078 ft 488 kts 269°
2026-05-06 11:55 51.60619 -24.74879 40079 ft 488 kts 269°
2026-05-06 11:56 51.60637 -24.85813 40075 ft 488 kts 269°
2026-05-06 11:56 51.60645 -24.96752 40072 ft 488 kts 269°
2026-05-06 11:57 51.60643 -25.07626 40075 ft 489 kts 269°
2026-05-06 11:57 51.60631 -25.18573 40072 ft 489 kts 269°
2026-05-06 11:58 51.60609 -25.29540 40070 ft 489 kts 269°
2026-05-06 11:58 51.60576 -25.40413 40067 ft 488 kts 269°
2026-05-06 11:59 51.60533 -25.51371 40067 ft 488 kts 269°
2026-05-06 11:59 51.60481 -25.62261 40062 ft 488 kts 269°
2026-05-06 12:00 51.60418 -25.73212 40061 ft 488 kts 269°
2026-05-06 12:00 51.60345 -25.84109 40068 ft 488 kts 269°
2026-05-06 12:01 51.60262 -25.95046 40057 ft 489 kts 269°
2026-05-06 12:01 51.60168 -26.06015 40053 ft 489 kts 268°
2026-05-06 12:02 51.60064 -26.16966 40048 ft 489 kts 268°
2026-05-06 12:02 51.59951 -26.27863 40048 ft 489 kts 268°
2026-05-06 12:03 51.59826 -26.38827 40045 ft 489 kts 268°
2026-05-06 12:03 51.59693 -26.49721 40043 ft 489 kts 268°
2026-05-06 12:04 51.59548 -26.60705 40042 ft 490 kts 268°
2026-05-06 12:04 51.59394 -26.71605 40042 ft 490 kts 268°
2026-05-06 12:05 51.59229 -26.82582 40037 ft 490 kts 268°
2026-05-06 12:05 51.59053 -26.93579 40037 ft 490 kts 268°
2026-05-06 12:06 51.58868 -27.04490 40032 ft 491 kts 268°
2026-05-06 12:06 51.58672 -27.15490 40031 ft 492 kts 268°
2026-05-06 12:07 51.58466 -27.26433 40029 ft 492 kts 268°
2026-05-06 12:07 51.58249 -27.37449 40029 ft 492 kts 268°
2026-05-06 12:08 51.58022 -27.48451 40018 ft 492 kts 268°
2026-05-06 12:08 51.57786 -27.59398 40017 ft 492 kts 267°
2026-05-06 12:09 51.57537 -27.70415 40018 ft 492 kts 267°
2026-05-06 12:09 51.57279 -27.81428 40018 ft 492 kts 267°
2026-05-06 12:10 51.57012 -27.92376 40012 ft 492 kts 267°
2026-05-06 12:10 51.56734 -28.03344 40013 ft 492 kts 267°
2026-05-06 12:11 51.56444 -28.14376 40007 ft 493 kts 267°
2026-05-06 12:11 51.56144 -28.25391 40002 ft 493 kts 267°
2026-05-06 12:12 51.55835 -28.36362 40001 ft 493 kts 267°
2026-05-06 12:12 51.55514 -28.47419 40001 ft 493 kts 267°
2026-05-06 12:13 51.55185 -28.58378 39998 ft 493 kts 266°
2026-05-06 12:13 51.54843 -28.69408 39998 ft 493 kts 266°
2026-05-06 12:14 51.54491 -28.80431 39992 ft 493 kts 266°
2026-05-06 12:14 51.54130 -28.91411 39993 ft 493 kts 266°
2026-05-06 12:15 51.53758 -29.02430 39994 ft 493 kts 266°
2026-05-06 12:15 51.53377 -29.13387 39986 ft 493 kts 266°
2026-05-06 12:16 51.52984 -29.24413 39999 ft 494 kts 266°
2026-05-06 12:16 51.52580 -29.35453 39993 ft 495 kts 266°
2026-05-06 12:17 51.52168 -29.46427 39994 ft 495 kts 266°
2026-05-06 12:17 51.51743 -29.57461 39994 ft 495 kts 266°
2026-05-06 12:18 51.51307 -29.68508 39990 ft 494 kts 266°
2026-05-06 12:18 51.50865 -29.79447 40000 ft 492 kts 266°
2026-05-06 12:19 51.50410 -29.90457 39998 ft 492 kts 266°
2026-05-06 12:19 51.49950 -30.01362 40005 ft 493 kts 266°
2026-05-06 12:20 51.49758 -30.12389 40002 ft 492 kts 269°
2026-05-06 12:20 51.49752 -30.23312 40010 ft 492 kts 270°
2026-05-06 12:21 51.49719 -30.32465 40013 ft 490 kts 269°
2026-05-06 12:21 51.49626 -30.43403 40016 ft 491 kts 269°
2026-05-06 12:22 51.49502 -30.54310 40017 ft 490 kts 269°
2026-05-06 12:22 51.49365 -30.65276 40026 ft 491 kts 269°
2026-05-06 12:23 51.49220 -30.76250 40022 ft 490 kts 269°
2026-05-06 12:23 51.49067 -30.87142 40031 ft 490 kts 269°
2026-05-06 12:24 51.48904 -30.98081 40034 ft 489 kts 268°
2026-05-06 12:24 51.48730 -31.09026 40038 ft 490 kts 268°
2026-05-06 12:25 51.48545 -31.19962 40039 ft 490 kts 268°
2026-05-06 12:25 51.48352 -31.30860 40044 ft 490 kts 268°
2026-05-06 12:26 51.48147 -31.41798 40049 ft 491 kts 268°
2026-05-06 12:26 51.47932 -31.52763 40053 ft 490 kts 268°
2026-05-06 12:27 51.47707 -31.63722 40053 ft 492 kts 268°
2026-05-06 12:27 51.47471 -31.74699 40055 ft 491 kts 268°
2026-05-06 12:28 51.47226 -31.85608 40057 ft 492 kts 268°
2026-05-06 12:28 51.46970 -31.96571 40069 ft 492 kts 268°
2026-05-06 12:29 51.46704 -32.07523 40066 ft 493 kts 268°
2026-05-06 12:29 51.46427 -32.18517 40071 ft 492 kts 268°
2026-05-06 12:30 51.46138 -32.29525 40075 ft 492 kts 268°
2026-05-06 12:30 51.45843 -32.40429 40071 ft 493 kts 268°
2026-05-06 12:31 51.45534 -32.51454 40077 ft 493 kts 268°
2026-05-06 12:31 51.45217 -32.62391 40084 ft 494 kts 267°
2026-05-06 12:32 51.44887 -32.73406 40087 ft 493 kts 267°
2026-05-06 12:32 51.44547 -32.84420 40086 ft 493 kts 267°
2026-05-06 12:33 51.44200 -32.95343 40086 ft 493 kts 267°
2026-05-06 12:33 51.43840 -33.06352 40093 ft 494 kts 267°
2026-05-06 12:34 51.43472 -33.17281 40092 ft 494 kts 267°
2026-05-06 12:34 51.43090 -33.28311 40098 ft 494 kts 267°
2026-05-06 12:35 51.42698 -33.39329 40096 ft 495 kts 267°
2026-05-06 12:35 51.42298 -33.50290 40099 ft 495 kts 267°
2026-05-06 12:36 51.41886 -33.61288 40102 ft 495 kts 267°
2026-05-06 12:36 51.41464 -33.72301 40102 ft 495 kts 267°
2026-05-06 12:37 51.41033 -33.83244 40102 ft 495 kts 267°
2026-05-06 12:37 51.40589 -33.94277 40108 ft 495 kts 267°
2026-05-06 12:38 51.40138 -34.05209 40105 ft 494 kts 267°
2026-05-06 12:38 51.39674 -34.16214 40111 ft 493 kts 267°
2026-05-06 12:39 51.39201 -34.27199 40117 ft 493 kts 267°
2026-05-06 12:39 51.38721 -34.38110 40113 ft 493 kts 266°
2026-05-06 12:40 51.38227 -34.49094 40113 ft 493 kts 266°
2026-05-06 12:40 51.37725 -34.60010 40111 ft 493 kts 267°
2026-05-06 12:41 51.37212 -34.70966 40116 ft 492 kts 266°
2026-05-06 12:41 51.36691 -34.81854 40116 ft 492 kts 266°
2026-05-06 12:42 51.36158 -34.92800 40116 ft 492 kts 266°
2026-05-06 12:42 51.35615 -35.03731 40118 ft 492 kts 266°
2026-05-06 12:43 51.35064 -35.14609 40112 ft 492 kts 266°
2026-05-06 12:43 51.34501 -35.25532 40116 ft 491 kts 266°
2026-05-06 12:44 51.33932 -35.36367 40116 ft 491 kts 266°
2026-05-06 12:44 51.33349 -35.47269 40116 ft 491 kts 266°
2026-05-06 12:45 51.32756 -35.58179 40118 ft 491 kts 266°
2026-05-06 12:46 51.31852 -35.74446 40114 ft 491 kts 266°
2026-05-06 12:46 51.31235 -35.85317 40115 ft 490 kts 266°
2026-05-06 12:47 51.30609 -35.96173 40111 ft 490 kts 266°
2026-05-06 12:47 51.29977 -36.06968 40116 ft 490 kts 266°
2026-05-06 12:48 51.29329 -36.17838 40115 ft 490 kts 266°
2026-05-06 12:48 51.28676 -36.28635 40118 ft 490 kts 266°
2026-05-06 12:49 51.28009 -36.39502 40115 ft 490 kts 266°
2026-05-06 12:49 51.27335 -36.50301 40118 ft 491 kts 266°
2026-05-06 12:50 51.26647 -36.61178 40121 ft 491 kts 266°
2026-05-06 12:50 51.25953 -36.71974 40121 ft 491 kts 265°
2026-05-06 12:51 51.25244 -36.82838 40117 ft 490 kts 266°
2026-05-06 12:51 51.24533 -36.93601 40119 ft 490 kts 265°
2026-05-06 12:52 51.23807 -37.04417 40120 ft 490 kts 265°
2026-05-06 12:52 51.23070 -37.15251 40121 ft 490 kts 265°
2026-05-06 12:53 51.22327 -37.26023 40124 ft 490 kts 265°
2026-05-06 12:53 51.21575 -37.36785 40124 ft 489 kts 265°
2026-05-06 12:54 51.20811 -37.47563 40127 ft 488 kts 265°
2026-05-06 12:54 51.20036 -37.58361 40124 ft 488 kts 265°
2026-05-06 12:55 51.19257 -37.69071 40127 ft 488 kts 265°
2026-05-06 12:55 51.18463 -37.79861 40127 ft 488 kts 265°
2026-05-06 12:56 51.17664 -37.90558 40128 ft 487 kts 265°
2026-05-06 12:56 51.16858 -38.01232 40130 ft 487 kts 265°
2026-05-06 12:57 51.16036 -38.11971 40132 ft 487 kts 265°
2026-05-06 12:57 51.15211 -38.22626 40132 ft 487 kts 265°
2026-05-06 12:58 51.14371 -38.33351 40135 ft 487 kts 265°
2026-05-06 12:58 51.13522 -38.44057 40132 ft 486 kts 265°
2026-05-06 12:59 51.12669 -38.54680 40141 ft 485 kts 265°
2026-05-06 12:59 51.11801 -38.65374 40142 ft 485 kts 265°
2026-05-06 13:00 51.10929 -38.75997 40137 ft 485 kts 265°
2026-05-06 13:00 51.10048 -38.86598 40144 ft 485 kts 264°
2026-05-06 13:01 51.09155 -38.97224 40141 ft 484 kts 264°
2026-05-06 13:01 51.08253 -39.07849 40143 ft 484 kts 264°
2026-05-06 13:02 51.07343 -39.18446 40144 ft 484 kts 264°
2026-05-06 13:02 51.06424 -39.29035 40142 ft 485 kts 264°
2026-05-06 13:03 51.05492 -39.39655 40143 ft 485 kts 264°
2026-05-06 13:03 51.04547 -39.50297 40141 ft 484 kts 264°
2026-05-06 13:04 51.03603 -39.60834 40146 ft 483 kts 264°
2026-05-06 13:04 51.02644 -39.71421 40144 ft 483 kts 264°
2026-05-06 13:05 51.01681 -39.81944 40148 ft 483 kts 264°
2026-05-06 13:05 51.00704 -39.92512 40146 ft 483 kts 264°
2026-05-06 13:06 50.99371 -40.02979 40151 ft 485 kts 257°
2026-05-06 13:06 50.97451 -40.13203 40153 ft 486 kts 256°
2026-05-06 13:07 50.95756 -40.21732 40151 ft 486 kts 255°
2026-05-06 13:07 50.93715 -40.31900 40150 ft 486 kts 255°
2026-05-06 13:08 50.91325 -40.43819 40134 ft 486 kts 255°
2026-05-06 13:08 50.89620 -40.52309 40150 ft 485 kts 255°
2026-05-06 13:09 50.87565 -40.62505 40154 ft 485 kts 255°
2026-05-06 13:09 50.85504 -40.72676 40153 ft 485 kts 255°
2026-05-06 13:10 50.83446 -40.82778 40150 ft 485 kts 255°
2026-05-06 13:10 50.81364 -40.92941 40147 ft 485 kts 255°
2026-05-06 13:11 50.79287 -41.03032 40158 ft 485 kts 255°
2026-05-06 13:11 50.77183 -41.13200 40157 ft 485 kts 255°
2026-05-06 13:12 50.75089 -41.23269 40157 ft 485 kts 255°
2026-05-06 13:12 50.72971 -41.33403 40159 ft 485 kts 255°
2026-05-06 13:13 50.70845 -41.43525 40163 ft 485 kts 255°
2026-05-06 13:13 50.68720 -41.53590 40159 ft 486 kts 255°
2026-05-06 13:14 50.66572 -41.63713 40162 ft 486 kts 255°
2026-05-06 13:14 50.64427 -41.73774 40162 ft 486 kts 255°
2026-05-06 13:15 50.62262 -41.83875 40163 ft 486 kts 255°
2026-05-06 13:15 50.60089 -41.93963 40168 ft 485 kts 255°
2026-05-06 13:16 50.57922 -42.03980 40171 ft 485 kts 255°
2026-05-06 13:16 50.55735 -42.14039 40169 ft 485 kts 255°
2026-05-06 13:17 50.53549 -42.24038 40150 ft 485 kts 255°
2026-05-06 13:17 50.51343 -42.34081 40173 ft 484 kts 255°
2026-05-06 13:18 50.49134 -42.44092 40173 ft 484 kts 255°
2026-05-06 13:18 50.46931 -42.54031 40175 ft 484 kts 254°
2026-05-06 13:19 50.44707 -42.64014 40172 ft 484 kts 254°
2026-05-06 13:19 50.42484 -42.73944 40175 ft 483 kts 254°
2026-05-06 13:20 50.40249 -42.83882 40178 ft 483 kts 254°
2026-05-06 13:20 50.38002 -42.93826 40181 ft 483 kts 254°
2026-05-06 13:21 50.35747 -43.03759 40183 ft 483 kts 254°
2026-05-06 13:21 50.33505 -43.13586 40164 ft 482 kts 254°
2026-05-06 13:22 50.31241 -43.23464 40175 ft 481 kts 254°
2026-05-06 13:22 50.28975 -43.33306 40185 ft 480 kts 254°
2026-05-06 13:23 50.26733 -43.43075 40186 ft 480 kts 254°
2026-05-06 13:23 50.24445 -43.52899 40186 ft 480 kts 254°
2026-05-06 13:24 50.22146 -43.62711 40182 ft 478 kts 254°
2026-05-06 13:24 50.19853 -43.72471 40184 ft 477 kts 254°
2026-05-06 13:25 50.17577 -43.82136 40184 ft 477 kts 254°
2026-05-06 13:25 50.15281 -43.91843 40183 ft 477 kts 253°
2026-05-06 13:26 50.12987 -44.01499 40169 ft 476 kts 253°
2026-05-06 13:26 50.10679 -44.11163 40189 ft 475 kts 253°
2026-05-06 13:27 50.08367 -44.20805 40182 ft 474 kts 253°
2026-05-06 13:27 50.06049 -44.30432 40181 ft 474 kts 253°
2026-05-06 13:28 50.03735 -44.39998 40180 ft 473 kts 253°
2026-05-06 13:28 50.01405 -44.49588 40184 ft 472 kts 253°
2026-05-06 13:29 49.99090 -44.59078 40185 ft 472 kts 253°
2026-05-06 13:29 49.96749 -44.68633 40181 ft 472 kts 253°
2026-05-06 13:30 49.94419 -44.78099 40187 ft 472 kts 253°
2026-05-06 13:30 49.92058 -44.87654 40174 ft 471 kts 253°
2026-05-06 13:31 49.89718 -44.97074 40184 ft 470 kts 253°
2026-05-06 13:31 49.87357 -45.06543 40184 ft 470 kts 253°
2026-05-06 13:32 49.85002 -45.15950 40186 ft 470 kts 253°
2026-05-06 13:32 49.82631 -45.25382 40181 ft 470 kts 253°
2026-05-06 13:33 49.80261 -45.34772 40182 ft 469 kts 253°
2026-05-06 13:33 49.77873 -45.44189 40189 ft 469 kts 253°
2026-05-06 13:34 49.75482 -45.53585 40180 ft 468 kts 252°
2026-05-06 13:34 49.73104 -45.62886 40193 ft 468 kts 252°
2026-05-06 13:35 49.70703 -45.72243 40177 ft 468 kts 252°
2026-05-06 13:35 49.68296 -45.81582 40185 ft 468 kts 252°
2026-05-06 13:36 49.65876 -45.90931 40180 ft 468 kts 252°
2026-05-06 13:36 49.63466 -46.00207 40182 ft 468 kts 252°
2026-05-06 13:37 49.61033 -46.09529 40188 ft 468 kts 252°
2026-05-06 13:37 49.58604 -46.18803 40185 ft 468 kts 252°
2026-05-06 13:38 49.56165 -46.28076 40183 ft 468 kts 252°
2026-05-06 13:38 49.53707 -46.37383 40181 ft 468 kts 252°
2026-05-06 13:39 49.51253 -46.46637 40188 ft 468 kts 252°
2026-05-06 13:39 49.48780 -46.55927 40179 ft 468 kts 252°
2026-05-06 13:40 49.46310 -46.65168 40193 ft 468 kts 252°
2026-05-06 13:40 49.43817 -46.74456 40184 ft 468 kts 251°
2026-05-06 13:41 49.41337 -46.83658 40189 ft 468 kts 251°
2026-05-06 13:41 49.38847 -46.92865 40189 ft 468 kts 251°
2026-05-06 13:42 49.36345 -47.02076 40187 ft 468 kts 251°
2026-05-06 13:42 49.33829 -47.11305 40188 ft 468 kts 251°
2026-05-06 13:43 49.31327 -47.20445 40186 ft 467 kts 251°
2026-05-06 13:43 49.28798 -47.29646 40190 ft 468 kts 251°
2026-05-06 13:44 49.26264 -47.38833 40191 ft 467 kts 251°
2026-05-06 13:44 49.23744 -47.47931 40190 ft 466 kts 251°
2026-05-06 13:45 49.21200 -47.57083 40194 ft 466 kts 251°
2026-05-06 13:45 49.17373 -47.70780 40194 ft 466 kts 251°
2026-05-06 13:46 49.14825 -47.79859 40181 ft 466 kts 250°
2026-05-06 13:46 49.12265 -47.88944 40189 ft 466 kts 250°
2026-05-06 13:47 49.09688 -47.98055 40190 ft 466 kts 250°
2026-05-06 13:47 49.07122 -48.07091 40191 ft 466 kts 250°
2026-05-06 13:48 49.04534 -48.16173 40192 ft 466 kts 250°
2026-05-06 13:48 49.01956 -48.25182 40183 ft 466 kts 250°
2026-05-06 13:49 48.99350 -48.34258 40183 ft 466 kts 249°
2026-05-06 13:49 48.96759 -48.43245 40186 ft 466 kts 249°
2026-05-06 13:50 48.94144 -48.52284 40187 ft 466 kts 249°
2026-05-06 13:50 48.91525 -48.61303 40188 ft 465 kts 249°
2026-05-06 13:51 48.88914 -48.70258 40181 ft 465 kts 249°
2026-05-06 13:51 48.86277 -48.79272 40181 ft 465 kts 249°
2026-05-06 13:52 48.83654 -48.88205 40181 ft 465 kts 249°
2026-05-06 13:52 48.81007 -48.97186 40166 ft 465 kts 249°
2026-05-06 13:53 48.78354 -49.06153 40187 ft 465 kts 249°
2026-05-06 13:53 48.75712 -49.15052 40186 ft 465 kts 249°
2026-05-06 13:54 48.73050 -49.23984 40181 ft 464 kts 249°
2026-05-06 13:54 48.70384 -49.32896 40181 ft 464 kts 249°
2026-05-06 13:55 48.67723 -49.41762 40180 ft 464 kts 248°
2026-05-06 13:55 48.65491 -49.49174 40181 ft 464 kts 248°
2026-05-06 13:56 48.62805 -49.58062 40181 ft 464 kts 248°
2026-05-06 13:56 48.60125 -49.66899 40181 ft 464 kts 248°
2026-05-06 13:57 48.57423 -49.75777 40181 ft 464 kts 248°
2026-05-06 13:57 48.54733 -49.84583 40182 ft 464 kts 248°
2026-05-06 13:58 48.52015 -49.93449 40180 ft 464 kts 248°
2026-05-06 13:58 48.49473 -50.02345 40183 ft 463 kts 252°
2026-05-06 13:59 48.47234 -50.11463 40178 ft 462 kts 252°
2026-05-06 13:59 48.45058 -50.20532 40180 ft 462 kts 252°
2026-05-06 14:00 48.42871 -50.29623 40193 ft 462 kts 252°
2026-05-06 14:00 48.40671 -50.38707 40192 ft 462 kts 252°
2026-05-06 14:01 48.38457 -50.47790 40184 ft 461 kts 252°
2026-05-06 14:01 48.36237 -50.56862 40184 ft 461 kts 252°
2026-05-06 14:02 48.34023 -50.65876 40188 ft 461 kts 251°
2026-05-06 14:02 48.31789 -50.74930 40191 ft 461 kts 251°
2026-05-06 14:03 48.29563 -50.83918 40196 ft 461 kts 251°
2026-05-06 14:03 48.27317 -50.92950 40181 ft 461 kts 251°
2026-05-06 14:04 48.25076 -51.01927 40175 ft 461 kts 251°
2026-05-06 14:04 48.22815 -51.10947 40185 ft 461 kts 251°
2026-05-06 14:05 48.20563 -51.19894 40194 ft 461 kts 251°
2026-05-06 14:05 48.18288 -51.28898 40185 ft 461 kts 250°
2026-05-06 14:06 48.16023 -51.37824 40189 ft 461 kts 250°
2026-05-06 14:06 48.13739 -51.46794 40182 ft 461 kts 250°
2026-05-06 14:07 48.11441 -51.55781 40186 ft 461 kts 250°
2026-05-06 14:07 48.09153 -51.64694 40178 ft 461 kts 250°
2026-05-06 14:08 48.06838 -51.73675 40181 ft 461 kts 250°
2026-05-06 14:08 48.04529 -51.82601 40170 ft 461 kts 250°
2026-05-06 14:09 48.02201 -51.91567 40207 ft 463 kts 249°
2026-05-06 14:09 47.99871 -52.00504 40230 ft 465 kts 249°
2026-05-06 14:10 47.97779 -52.09658 40229 ft 465 kts 253°
2026-05-06 14:10 47.95926 -52.18882 40253 ft 464 kts 253°
2026-05-06 14:11 47.94038 -52.28096 40248 ft 463 kts 253°
2026-05-06 14:11 47.93074 -52.32672 40376 ft 459 kts 253°
2026-05-06 14:11 47.92119 -52.37152 40973 ft 448 kts 252°
2026-05-06 14:12 47.91191 -52.41475 41577 ft 439 kts 252°
2026-05-06 14:12 47.90258 -52.45802 41924 ft 436 kts 252°
2026-05-06 14:12 47.89324 -52.50132 42120 ft 436 kts 252°
2026-05-06 14:12 47.88403 -52.54389 42284 ft 436 kts 252°
2026-05-06 14:13 47.87469 -52.58705 42461 ft 436 kts 252°
2026-05-06 14:13 47.86536 -52.63007 42597 ft 437 kts 252°
2026-05-06 14:13 47.85599 -52.67320 42753 ft 437 kts 252°
2026-05-06 14:13 47.84661 -52.71628 42915 ft 437 kts 252°
2026-05-06 14:14 47.83721 -52.75935 43066 ft 437 kts 252°
2026-05-06 14:14 47.82777 -52.80253 43178 ft 438 kts 252°
2026-05-06 14:14 47.80885 -52.88883 43191 ft 444 kts 252°
2026-05-06 14:15 47.78944 -52.97702 43187 ft 449 kts 252°
2026-05-06 14:15 47.77000 -53.06491 43197 ft 448 kts 252°
2026-05-06 14:16 47.75050 -53.15271 43204 ft 447 kts 252°
2026-05-06 14:16 47.73079 -53.24113 43212 ft 453 kts 252°
2026-05-06 14:17 47.71087 -53.33005 43211 ft 458 kts 252°
2026-05-06 14:17 47.69065 -53.42000 43221 ft 461 kts 252°
2026-05-06 14:18 47.67019 -53.51056 43225 ft 463 kts 252°
2026-05-06 14:18 47.64966 -53.60110 43225 ft 463 kts 251°
2026-05-06 14:19 47.62908 -53.69147 43233 ft 461 kts 251°
2026-05-06 14:19 47.60859 -53.78106 43232 ft 461 kts 251°
2026-05-06 14:20 47.58789 -53.87114 43230 ft 461 kts 251°
2026-05-06 14:20 47.56728 -53.96050 43233 ft 460 kts 251°
2026-05-06 14:21 47.54646 -54.05039 43236 ft 461 kts 251°
2026-05-06 14:21 47.52556 -54.14023 43239 ft 461 kts 251°
2026-05-06 14:22 47.50471 -54.22953 43235 ft 461 kts 251°
2026-05-06 14:22 47.48370 -54.31912 43242 ft 461 kts 251°
2026-05-06 14:23 47.46260 -54.40871 43238 ft 461 kts 251°
2026-05-06 14:23 47.44151 -54.49789 43239 ft 462 kts 251°
2026-05-06 14:24 47.42032 -54.58717 43236 ft 462 kts 250°
2026-05-06 14:24 47.39894 -54.67687 43234 ft 462 kts 250°
2026-05-06 14:25 47.37758 -54.76608 43240 ft 462 kts 250°
2026-05-06 14:25 47.35605 -54.85567 43236 ft 462 kts 250°
2026-05-06 14:26 47.33440 -54.94537 43235 ft 464 kts 250°
2026-05-06 14:26 47.31276 -55.03469 43236 ft 465 kts 250°
2026-05-06 14:27 47.29097 -55.12430 43218 ft 465 kts 250°
2026-05-06 14:27 47.26914 -55.21367 43206 ft 465 kts 250°
2026-05-06 14:28 47.24716 -55.30330 43196 ft 464 kts 250°
2026-05-06 14:28 47.22523 -55.39235 43204 ft 464 kts 250°
2026-05-06 14:29 47.20319 -55.48151 43190 ft 463 kts 250°
2026-05-06 14:29 47.18110 -55.57054 43189 ft 463 kts 250°
2026-05-06 14:30 47.15902 -55.65915 43215 ft 463 kts 250°
2026-05-06 14:30 47.13673 -55.74828 43199 ft 463 kts 249°
2026-05-06 14:31 47.11444 -55.83702 43215 ft 462 kts 249°
2026-05-06 14:31 47.09236 -55.92460 43220 ft 462 kts 249°
2026-05-06 14:32 47.06994 -56.01316 43245 ft 462 kts 249°
2026-05-06 14:32 47.04761 -56.10106 43222 ft 462 kts 249°
2026-05-06 14:33 47.02508 -56.18940 43234 ft 461 kts 249°
2026-05-06 14:33 47.00253 -56.27751 43234 ft 461 kts 249°
2026-05-06 14:34 46.98005 -56.36498 43226 ft 461 kts 249°
2026-05-06 14:34 46.95734 -56.45300 43223 ft 461 kts 249°
2026-05-06 14:35 46.93471 -56.54039 43217 ft 461 kts 249°
2026-05-06 14:35 46.91182 -56.62843 43214 ft 461 kts 249°
2026-05-06 14:36 46.88893 -56.71615 43207 ft 461 kts 249°
2026-05-06 14:36 46.86613 -56.80321 43209 ft 461 kts 249°
2026-05-06 14:37 46.84306 -56.89095 43211 ft 461 kts 248°
2026-05-06 14:37 46.82010 -56.97796 43195 ft 461 kts 248°
2026-05-06 14:38 46.79688 -57.06564 43203 ft 462 kts 248°
2026-05-06 14:38 46.77374 -57.15265 43205 ft 462 kts 248°
2026-05-06 14:39 46.75044 -57.23999 43197 ft 462 kts 248°
2026-05-06 14:39 46.72704 -57.32734 43199 ft 462 kts 248°
2026-05-06 14:40 46.70359 -57.41456 43216 ft 462 kts 248°
2026-05-06 14:40 46.68017 -57.50137 43209 ft 462 kts 248°
2026-05-06 14:41 46.65649 -57.58879 43188 ft 463 kts 248°
2026-05-06 14:41 46.63279 -57.67597 43192 ft 463 kts 248°
2026-05-06 14:42 46.60917 -57.76256 43193 ft 463 kts 248°
2026-05-06 14:42 46.58530 -57.84972 43183 ft 463 kts 248°
2026-05-06 14:43 46.56148 -57.93642 43183 ft 463 kts 248°
2026-05-06 14:43 46.54152 -58.00878 43184 ft 463 kts 248°
2026-05-06 14:44 46.51745 -58.09579 43175 ft 463 kts 248°
2026-05-06 14:45 46.48143 -58.22540 43176 ft 463 kts 248°
2026-05-06 14:45 46.45724 -58.31208 43179 ft 463 kts 248°
2026-05-06 14:46 46.43294 -58.39880 43173 ft 463 kts 248°
2026-05-06 14:46 46.40874 -58.48488 43174 ft 463 kts 248°
2026-05-06 14:47 46.38439 -58.57116 43171 ft 463 kts 248°
2026-05-06 14:47 46.35990 -58.65765 43175 ft 463 kts 248°
2026-05-06 14:48 46.33535 -58.74404 43163 ft 463 kts 247°
2026-05-06 14:48 46.31092 -58.82971 43168 ft 463 kts 247°
2026-05-06 14:49 46.28624 -58.91595 43165 ft 463 kts 247°
2026-05-06 14:49 46.26165 -59.00155 43149 ft 462 kts 247°
2026-05-06 14:50 46.23686 -59.08757 43155 ft 462 kts 247°
2026-05-06 14:50 46.21221 -59.17283 43154 ft 462 kts 247°
2026-05-06 14:51 46.19288 -59.23943 43138 ft 462 kts 247°
2026-05-06 14:51 46.17023 -59.31731 43140 ft 462 kts 247°
2026-05-06 14:52 46.14521 -59.40300 43136 ft 462 kts 247°
2026-05-06 14:52 46.12028 -59.48809 43135 ft 463 kts 247°
2026-05-06 14:53 46.09508 -59.57385 43122 ft 463 kts 247°
2026-05-06 14:53 46.07001 -59.65884 43134 ft 463 kts 247°
2026-05-06 14:54 46.04473 -59.74424 43132 ft 463 kts 247°
2026-05-06 14:54 46.01954 -59.82906 43115 ft 462 kts 247°
2026-05-06 14:55 45.99415 -59.91425 43117 ft 462 kts 247°
2026-05-06 14:55 45.96891 -59.99867 43131 ft 462 kts 247°
2026-05-06 14:56 45.94343 -60.08360 43113 ft 462 kts 247°
2026-05-06 14:56 45.91804 -60.16793 43096 ft 462 kts 247°
2026-05-06 14:57 45.89243 -60.25273 43132 ft 462 kts 247°
2026-05-06 14:57 45.86677 -60.33741 43144 ft 462 kts 246°
2026-05-06 14:58 45.84116 -60.42163 43140 ft 462 kts 247°
2026-05-06 14:58 45.81535 -60.50622 43146 ft 462 kts 247°
2026-05-06 14:59 45.78946 -60.59078 43143 ft 462 kts 247°
2026-05-06 14:59 45.76365 -60.67484 43135 ft 463 kts 247°
2026-05-06 15:00 45.73756 -60.75949 43133 ft 463 kts 247°
2026-05-06 15:00 45.71163 -60.84335 43142 ft 463 kts 246°
2026-05-06 15:01 45.68552 -60.92752 43136 ft 463 kts 246°
2026-05-06 15:01 45.65944 -61.01132 43125 ft 462 kts 246°
2026-05-06 15:02 45.63319 -61.09540 43124 ft 462 kts 246°
2026-05-06 15:02 45.60703 -61.17890 43115 ft 462 kts 246°
2026-05-06 15:03 45.58069 -61.26271 43109 ft 462 kts 246°
2026-05-06 15:03 45.55425 -61.34653 43105 ft 462 kts 246°
2026-05-06 15:04 45.52782 -61.43010 43106 ft 462 kts 246°
2026-05-06 15:04 45.50149 -61.51306 43109 ft 461 kts 246°
2026-05-06 15:05 45.47494 -61.59645 43110 ft 461 kts 246°
2026-05-06 15:05 45.44848 -61.67925 43114 ft 461 kts 246°
2026-05-06 15:06 45.42185 -61.76236 43116 ft 459 kts 246°
2026-05-06 15:06 45.39532 -61.84490 43119 ft 458 kts 246°
2026-05-06 15:07 45.36873 -61.92735 43114 ft 457 kts 246°
2026-05-06 15:07 45.34227 -62.00912 43117 ft 457 kts 246°
2026-05-06 15:08 45.31554 -62.09151 43115 ft 457 kts 246°
2026-05-06 15:08 45.28897 -62.17312 43131 ft 457 kts 246°
2026-05-06 15:09 45.26212 -62.25534 43111 ft 457 kts 246°
2026-05-06 15:09 45.23527 -62.33730 43131 ft 457 kts 246°
2026-05-06 15:10 45.20855 -62.41860 43137 ft 457 kts 245°
2026-05-06 15:10 45.18334 -62.49508 43131 ft 457 kts 245°
2026-05-06 15:11 45.15635 -62.57672 43129 ft 457 kts 245°
2026-05-06 15:11 45.13099 -62.65318 43127 ft 457 kts 245°
2026-05-06 15:12 45.10387 -62.73474 43135 ft 457 kts 245°
2026-05-06 15:12 45.07666 -62.81628 43116 ft 458 kts 245°
2026-05-06 15:13 45.04952 -62.89740 43129 ft 459 kts 245°
2026-05-06 15:13 45.02433 -62.97244 43133 ft 460 kts 245°
2026-05-06 15:14 44.99680 -63.05423 43138 ft 460 kts 245°
2026-05-06 15:14 44.96913 -63.13616 43123 ft 462 kts 245°
2026-05-06 15:15 44.94145 -63.21787 43123 ft 464 kts 245°
2026-05-06 15:15 44.91343 -63.30034 43122 ft 466 kts 245°
2026-05-06 15:16 44.88548 -63.38237 43119 ft 466 kts 245°
2026-05-06 15:16 44.85728 -63.46484 43118 ft 466 kts 245°
2026-05-06 15:17 44.83375 -63.53347 43116 ft 466 kts 245°
2026-05-06 15:17 44.80078 -63.62934 43118 ft 468 kts 245°
2026-05-06 15:18 44.77231 -63.71188 43125 ft 468 kts 245°
2026-05-06 15:18 44.74391 -63.79392 43115 ft 467 kts 245°
2026-05-06 15:19 44.71547 -63.87584 43091 ft 467 kts 245°
2026-05-06 15:19 44.68671 -63.95844 43104 ft 469 kts 245°
2026-05-06 15:20 44.65807 -64.04043 43104 ft 470 kts 245°
2026-05-06 15:20 44.62919 -64.12289 43088 ft 470 kts 245°
2026-05-06 15:21 44.60042 -64.20477 43082 ft 470 kts 245°
2026-05-06 15:21 44.57140 -64.28707 43084 ft 469 kts 245°
2026-05-06 15:22 44.54238 -64.36916 43071 ft 468 kts 245°
2026-05-06 15:22 44.51353 -64.45053 43073 ft 467 kts 245°
2026-05-06 15:23 44.48456 -64.53199 43071 ft 466 kts 245°
2026-05-06 15:23 44.45565 -64.61304 43071 ft 466 kts 246°
2026-05-06 15:24 44.42679 -64.69368 43075 ft 465 kts 245°
2026-05-06 15:24 44.39776 -64.77460 43082 ft 465 kts 245°
2026-05-06 15:25 44.36867 -64.85545 43088 ft 465 kts 245°
2026-05-06 15:25 44.33969 -64.93573 43080 ft 465 kts 245°
2026-05-06 15:26 44.31051 -65.01628 43095 ft 462 kts 246°
2026-05-06 15:26 44.28143 -65.09638 43081 ft 460 kts 246°
2026-05-06 15:27 44.25257 -65.17565 43083 ft 460 kts 246°
2026-05-06 15:27 44.22349 -65.25531 43084 ft 460 kts 246°